P/2019 O1 ( Kowalski )

Japanese version
Home page
Updated on September 17, 2019

---------------------------------------------------------------------

* Profile

Recovery Date July 27, 2019
Magnitude 20.0 mag
Recoverer Hidetaka Sato (Tokyo, Japan)

* Pictures

* Orbital Elements

Epoch 2019 Oct. 4.0 TT = JDT 2458760.5                                          
T 2019 Oct. 11.41154 TT                                 MPCLINUX                
q   1.1163585            (2000.0)            P               Q                  
n   0.19936174     Peri.   37.64358     +0.84867457     -0.52876215             
a   2.9020720      Node   354.23499     +0.44925531     +0.73334979             
e   0.6153236      Incl.    7.28121     +0.27914360     +0.42732737             
P   4.94                                                                        
From 165 observations 2014 Oct. 18-2019 July 28, mean residual 0".6.            

* Finding Charts

* Magnitudes Graph

        m1 = 19.0 + 5 log d + 10.0 log r(t - 30)

---------------------------------------------------------------------

The orbital elements are published on M.P.E.C. 2019-O84.
The charts are made with StellaNavigator Ver.10 (AstroArts).
The magnitudes graphs are made with Comet for Windows.

---------------------------------------------------------------------

Copyright(C) Seiichi Yoshida (comet@aerith.net). All rights reserved.